Location: M�nchen
(48.1404°N, 11.6043°E)
Time: 19:41:11
(UTC+01:00)

ISS - Pass Details

Date: 17 November 2017
Orbit: 402 x 407 km, 51.6° (Epoch: 22 November)

Event Time Altitude Azimuth Distance (km) Brightness Sun altitude
Exits shadow 04:48:20 17° 140° (SE) 1,105 -1.2 -25.7°
Drops below altitude 10° 04:49:13 10° 135° (SE) 1,450 -0.5 -25.5°
Sets 04:51:20 0° 130° (SE) 2,306 0.8 -25.2°
